This is the latest recevied weather packets stored in our database for station/object N8TWM-13. If no packets are shown the sender has not sent any weather packets the latest 1 day(s).
| Time | Temp. | Humidity | Pressure | Rain* | Wind** | Luminosity | Snow |
|---|---|---|---|---|---|---|---|
| 1836274856 | 18.89° C | 74% | 1021.1 hPa | 0 mm | 0.89 m/s, 58° | 0 W/m² | - |
| 1836274554 | 18.89° C | 74% | 1021.3 hPa | 0 mm | 0 m/s | 0 W/m² | - |
| 1836274408 | 18.89° C | 73% | 1021.2 hPa | 0 mm | 0.45 m/s, 60° | 0 W/m² | - |
| 1836274252 | 18.89° C | 75% | 1021.1 hPa | 0 mm | 0 m/s | 0 W/m² | - |
| 1836273946 | 19.44° C | 75% | 1021.1 hPa | 0 mm | 0 m/s | 0 W/m² | - |
| 1778062025 | 6.11° C | 97% | 1008.1 hPa | 0 mm | 1.34 m/s, 267° | 0 W/m² | - |
| 1778061723 | 6.67° C | 97% | 1007.9 hPa | 0 mm | 0.89 m/s, 266° | 0 W/m² | - |
| 1778061421 | 6.67° C | 97% | 1008 hPa | 1.27 mm | 0 m/s | 0 W/m² | - |
| 1778061118 | 6.67° C | 97% | 1007.6 hPa | 1.27 mm | 0 m/s | 0 W/m² | - |
| 1778060815 | 6.67° C | 97% | 1007.6 hPa | 0 mm | 1.34 m/s, 17° | 0 W/m² | - |
| 1778060513 | 6.67° C | 97% | 1007.6 hPa | 0 mm | 2.24 m/s, 354° | 0 W/m² | - |
| 1778060211 | 6.67° C | 97% | 1007.4 hPa | 0 mm | 1.34 m/s, 288° | 0 W/m² | - |
| 1778059908 | 6.67° C | 97% | 1007.3 hPa | 0 mm | 1.34 m/s, 57° | 0 W/m² | - |
| 1778059606 | 6.67° C | 97% | 1007.8 hPa | 0 mm | 1.79 m/s, 303° | 0 W/m² | - |
| 1778059303 | 6.67° C | 97% | 1007.7 hPa | 0 mm | 1.34 m/s, 6° | 0 W/m² | - |
| 1778059001 | 6.67° C | 97% | 1008.1 hPa | 0 mm | 1.34 m/s, 349° | 0 W/m² | - |
| 1778058698 | 6.67° C | 97% | 1008.1 hPa | 1.78 mm | 1.34 m/s, 318° | 0 W/m² | - |
| 1778058396 | 6.67° C | 97% | 1008.5 hPa | 1.78 mm | 1.34 m/s, 5° | 0 W/m² | - |
| 1778058092 | 6.67° C | 97% | 1008.8 hPa | 0 mm | 0.89 m/s, 270° | 0 W/m² | - |
| 1778057789 | 6.67° C | 97% | 1008.6 hPa | 1.27 mm | 0.45 m/s, 335° | 0 W/m² | - |
| 1778057485 | 6.67° C | 97% | 1008.6 hPa | 1.27 mm | 0.89 m/s, 312° | 0 W/m² | - |
| 1778057182 | 6.67° C | 97% | 1008.6 hPa | 1.78 mm | 0.45 m/s, 261° | 0 W/m² | - |
| 1778056879 | 6.67° C | 97% | 1008.6 hPa | 1.78 mm | 0.89 m/s, 286° | 0 W/m² | - |
| 1778056576 | 6.67° C | 97% | 1008.5 hPa | 0 mm | 0.45 m/s, 267° | 0 W/m² | - |
| 1778056273 | 6.67° C | 97% | 1008.6 hPa | 0 mm | 0.45 m/s, 323° | 0 W/m² | - |
* Rain latest hour (hover to see other rain measurements)
** Current wind speed in m/s (hover to see current wind gust speed)